Сакар

Туркменистан     38˚55′31″N   63˚45′00″E
темп.,
°C
ветер,
м/с
пор.,
м/с
влажн.,
%
обл.,
%
осадки,
мм/ч
давл.,
гПа
погр.,
м
6 декабря, вс
вс623:00−3˚ссв34560 0.0 1031100
02:00−3˚ссв34670 0.0 103189
05:00−4˚ссв34670 0.0 103187
08:00−4˚ссв45670 0.0 1032107
11:00св344216 0.0 1031259
14:00+5˚ссв342426 0.0 1029455
17:00+5˚ссв462453 0.0 1028122
20:00+1˚ссв51034100 0.0 1028204
7 декабря, пн
пн723:00−1˚ссв5843100 0.0 1028173
02:00−3˚с594696 0.0 1027182
05:00−4˚с694698 0.0 1027212
08:00−5˚с61046100 0.0 1028242
11:00с6832100 0.0 1029297
14:00+4˚с6822100 0.0 1028527
17:00+2˚с6926100 0.0 1028462
20:00−2˚с593590 0.0 1030283
8 декабря, вт
вт823:00−5˚с584294 0.0 1031213
02:00−6˚с584799 0.0 1031206
05:00−6˚ссз584899 0.0 1031240
08:00−7˚ссз5750100 0.0 1033222
11:00−3˚ссз453898 0.0 1034335
14:00+1˚ссз442528 0.0 1032634
17:00с352714 0.0 103384
20:00−3˚с35370 0.0 103487
9 декабря, ср
ср923:00−5˚ссв44450 0.0 1034103
02:00−6˚ссв34530 0.0 1035106
05:00−7˚с34580 0.0 103491
08:00−8˚с23620 0.0 103585
11:00−3˚с11420 0.0 1035221
14:00+1˚зюз01280 0.0 1032384
17:00−1˚юв11370 0.0 103122
20:00−4˚всв11480 0.0 103121
10 декабря, чт
чт1023:00−4˚ссв11440 0.0 103121
02:00−3˚ссв333525 0.0 103030
05:00−4˚ссв234312 0.0 103040
08:00−4˚с23470 0.0 103144
11:00+1˚с222812 0.0 1032208
14:00+5˚с231960 0.0 1030455
17:00+4˚ссз232480 0.0 102931
20:00+2˚ссз4641100 0.0 1030113